Topeka, KS

9:33 AM CST on November 12, 2019 (GMT -0600)
Billard Municipal

Weather History for KTOP - September, 2019

Change the Weather History Date:

Friday, September 20, 2019

  Actual Average Record
Temperature  
Mean Temperature 78 °F 66 °F  
Max Temperature 85 °F 79 °F 98 °F (1980)
Min Temperature 70 °F 54 °F 36 °F (1991)
Degree Days  
Heating Degree Days 0 3  
Month to date heating degree days 0 24  
Since 1 July heating degree days 0 26  
Cooling Degree Days 13 4  
Month to date cooling degree days 264 133  
Year to date cooling degree days 1510 1361  
Growing Degree Days 27 (Base 50)    
Moisture  
Dew Point 68 °F    
Average Humidity 73    
Maximum Humidity 90    
Minimum Humidity 55    
Precipitation  
Precipitation 0.02 in 0.13 in 2.09 in (1965)
Month to date precipitation 1.24 2.45  
Year to date precipitation 42.13 29.02  
Snow  
Snow 0.00 in 0.00 in 0.00 in ()
Month to date snowfall 0.0 0.0  
Year to date snowfall 18.5 11.3  
Since 1 July snowfall T 0.0  
Snow Depth 0.00 in    
Sea Level Pressure  
Sea Level Pressure 29.95 in    
Wind  
Wind Speed 11 mph (SE)    
Max Wind Speed 22 mph    
Max Gust Speed 30 mph    
Visibility 10 miles    
Events Rain    
T = Trace of Precipitation, MM = Missing Value Source: NWS Daily Summary

Daily Weather History Graph

Daily Weather History Graph

Search for Another Location

Airport or City:

Astronomy

Sep. 20, 2019 Rise Set
Actual Time 7:08 AM CDT 7:23 PM CDT
Civil Twilight 6:41 AM CDT 7:49 PM CDT
Nautical Twilight 6:10 AM CDT 8:20 PM CDT
Astronomical Twilight 5:38 AM CDT 8:52 PM CDT
Moon 11:16 PM CDT (9/20) 1:11 PM CDT (9/20)
Length of Visible Light 13h 08m
Length of Day
12h 14m
Waning Gibbous, 65% of the Moon is Illuminated
Sep 20
Waning Gibbous
Sep 21
Last Quarter
Sep 28
New
Oct 5
First Quarter
Oct 13
Full

Hourly Weather History & Observations

Time (CDT) Temp. Heat Index Dew Point Humidity Pressure Visibility Wind Dir Wind Speed Gust Speed Precip Events Conditions
12:53 AM 73.9 °F - 66.0 °F 76% 29.96 in 10.0 mi ESE 3.5 mph - N/A   Clear
1:53 AM 73.0 °F - 66.9 °F 81% 29.97 in 10.0 mi East 4.6 mph - N/A   Clear
2:53 AM 72.0 °F - 66.9 °F 84% 29.97 in 10.0 mi Calm Calm - N/A   Clear
3:53 AM 72.0 °F - 66.9 °F 84% 29.96 in 10.0 mi East 4.6 mph - N/A   Clear
4:53 AM 71.1 °F - 66.9 °F 87% 29.95 in 10.0 mi ESE 3.5 mph - N/A   Clear
5:53 AM 71.1 °F - 66.9 °F 87% 29.95 in 10.0 mi ESE 4.6 mph - N/A   Clear
6:53 AM 71.1 °F - 66.9 °F 87% 29.96 in 10.0 mi ESE 4.6 mph - N/A   Partly Cloudy
7:53 AM 72.0 °F - 68.0 °F 87% 29.99 in 10.0 mi SE 3.5 mph - N/A   Clear
8:53 AM 75.0 °F - 68.0 °F 79% 30.00 in 10.0 mi SE 8.1 mph - N/A   Clear
9:53 AM 78.1 °F - 66.9 °F 68% 29.99 in 10.0 mi SSE 9.2 mph - N/A   Clear
10:53 AM 81.0 °F 83.3 °F 66.9 °F 62% 29.98 in 10.0 mi SSE 17.3 mph 24.2 mph N/A   Partly Cloudy
11:53 AM 82.0 °F 84.5 °F 66.9 °F 60% 29.98 in 10.0 mi SSE 15.0 mph 25.3 mph N/A   Partly Cloudy
12:53 PM 84.0 °F 86.5 °F 66.9 °F 56% 29.96 in 10.0 mi SSE 17.3 mph 28.8 mph N/A   Mostly Cloudy
1:53 PM 82.0 °F 84.5 °F 66.9 °F 60% 29.94 in 10.0 mi SSE 16.1 mph - N/A   Overcast
2:53 PM 75.9 °F - 69.1 °F 79% 29.95 in 10.0 mi SSE 13.8 mph 29.9 mph 0.00 in Rain Light Rain
3:53 PM 75.9 °F - 69.1 °F 79% 29.94 in 10.0 mi SSE 12.7 mph - 0.00 in Rain Light Rain
4:38 PM 73.0 °F - 70.0 °F 90% 29.95 in 8.0 mi SSE 10.4 mph - 0.02 in Rain Light Rain
4:48 PM 73.4 °F - 71.6 °F 94% 29.95 in 7.0 mi SSE 10.4 mph - 0.02 in Rain Light Rain
4:53 PM 73.9 °F - 70.0 °F 87% 29.93 in 10.0 mi SSE 10.4 mph - 0.02 in   Overcast
5:20 PM 75.0 °F - 69.1 °F 82% 29.94 in 10.0 mi SSE 12.7 mph - 0.00 in   Overcast
5:53 PM 75.0 °F - 69.1 °F 82% 29.92 in 10.0 mi SSE 15.0 mph 21.9 mph 0.00 in   Overcast
6:14 PM 75.0 °F - 68.0 °F 79% 29.93 in 10.0 mi SSE 11.5 mph - N/A   Overcast
6:33 PM 73.0 °F - 68.0 °F 84% 29.93 in 10.0 mi SE 15.0 mph - N/A   Overcast
6:53 PM 73.0 °F - 68.0 °F 84% 29.92 in 10.0 mi SSE 12.7 mph - N/A   Overcast
7:19 PM 73.0 °F - 69.1 °F 87% 29.93 in 10.0 mi SE 10.4 mph - N/A   Overcast
7:53 PM 72.0 °F - 69.1 °F 91% 29.92 in 8.0 mi SSE 12.7 mph - 0.00 in Rain Light Rain
8:17 PM 73.0 °F - 69.1 °F 87% 29.94 in 10.0 mi SSE 11.5 mph - 0.00 in   Overcast
8:37 PM 73.0 °F - 69.1 °F 87% 29.94 in 10.0 mi SE 10.4 mph - 0.00 in   Overcast
8:53 PM 73.0 °F - 69.1 °F 87% 29.91 in 10.0 mi SSE 12.7 mph - 0.00 in   Overcast
9:32 PM 73.0 °F - 69.1 °F 87% 29.94 in 10.0 mi SE 11.5 mph - 0.00 in   Overcast
9:53 PM 73.0 °F - 69.1 °F 87% 29.92 in 10.0 mi SE 11.5 mph - 0.00 in   Overcast
10:21 PM 73.0 °F - 69.1 °F 87% 29.94 in 10.0 mi SE 10.4 mph - N/A   Overcast
10:53 PM 73.0 °F - 69.1 °F 87% 29.93 in 10.0 mi SSE 10.4 mph - N/A   Overcast
11:53 PM 73.0 °F - 69.1 °F 87% 29.91 in 10.0 mi SSE 12.7 mph - N/A   Overcast